Location: Borea
(45.6167°N, 23.0167°E)
Time: 06:01:00
(UTC+00:00)

Cosmos 1726 Rocket - Pass Details

Date: 03 February 2023
Orbit: 602 x 627 km, 82.5° (Epoch: 29 March)

Event Time Altitude Azimuth Distance (km) Brightness Sun altitude
Rises 17:24:13 0° 346° (NNW) 2,866 7.1 -19.0°
Reaches altitude 10° 17:26:29 10° 341° (NNW) 1,957 6.3 -19.4°
Maximum altitude 17:30:39 50° 266° (W) 775 4.4 -20.1°
Drops below altitude 10° 17:34:49 10° 191° (SSW) 1,946 6.3 -20.9°
Sets 17:37:03 0° 186° (S) 2,846 7.1 -21.3°
